Regional Weather Roundup
Issued by NWS Northern Indiana

Home | Current Version | Previous Version | Graphics & Text | Print | Product List | Glossary On
Versions: 1 2 3 4 5 6 7 8 9 10 11 12 13 14 15 16 17 18 19 20 21 22 23 24 25 26 27 28 29 30 31 32 33 34 35 36 37 38 39 40 41 42 43 44 45 46 47 48 49 50
000
ASUS43 KIWX 022210
RWRIWX

KIWX WEATHER ROUNDUP
NATIONAL WEATHER SERVICE NORTHERN INDIANA
500 PM EST MON MAR 02 2015

NOTE: "FAIR" INDICATES FEW OR NO CLOUDS BELOW 12,000 FEET WITH NO
SIGNIFICANT WEATHER AND/OR OBSTRUCTIONS TO VISIBILITY.

* THESE STATIONS ARE NOT UNDER NWS QUALITY CONTROL. THEY ALSO MAY NOT
  REPORT WEATHER SUCH AS PRECIPITATION OR FOG.

INZ001>027-022300-
NORTHERN INDIANA

CITY           SKY/WX    TMP DP  RH WIND       PRES   REMARKS
GARY*          PTSUNNY   30  16  55 NE8       30.44F WCI  23
VALPARAISO     SUNNY     27  12  53 S5        30.42F WCI  22
MICHIGAN CITY* SUNNY     28  12  50 N3        30.44F
LAPORTE*       SUNNY     29  17  59 S3        30.43F
KNOX*            N/A     27   1  33 N5        30.43F WCI  21
SOUTH BEND     MOSUNNY   31  14  49 CALM      30.43F
ELKHART*       SUNNY     30   9  40 W3        30.43F
GOSHEN         MOSUNNY   27  14  58 SW6       30.42F WCI  20
MONTICELLO*    SUNNY     24  15  68 CALM      30.44F
LOGANSPORT*    SUNNY     23  16  74 S5        30.45F WCI  17
ROCHESTER*     SUNNY     32  12  43 S3        30.44F
WARSAW*        MOSUNNY   28  14  54 CALM      30.42F
ANGOLA*        SUNNY     27  16  63 N3        30.41F
FORT WAYNE     PTSUNNY   26  14  60 SW5       30.43F WCI  20
HUNTINGTON*    SUNNY     28   6  39 CALM      30.42F
PERU/GRISSOM   SUNNY     26  14  60 SW5       30.42F WCI  20
MARION*        SUNNY     23  13  66 CALM      30.44F

$$
INZ028>050-022300-
CENTRAL INDIANA

CITY           SKY/WX    TMP DP  RH WIND       PRES   REMARKS
LAFAYETTE      SUNNY     28  16  60 SW5       30.44S WCI  23
KOKOMO*        SUNNY     21  16  79 SE6       30.44S WCI  14
MUNCIE*        SUNNY     26  11  52 NW3       30.43F
INDIANAPOLIS   PTSUNNY   29  15  56 SE9       30.43R WCI  20

$$
MIZ043>046-050>051-056>058-064>065-071>073-077>080-022300-
SOUTHWEST LOWER MICHIGAN

CITY           SKY/WX    TMP DP  RH WIND       PRES   REMARKS
BATTLE CREEK   SUNNY     30  13  49 W9        30.41F WCI  22
BENTON HARBOR  SUNNY     24  16  71 W7        30.45F WCI  16
COLDWATER*     SUNNY     28  13  52 W6        30.41F WCI  22
HILLSDALE*     SUNNY     28  13  53 W8        30.39F WCI  19
HOLLAND        SUNNY     27  14  58 W5        30.44F WCI  22
GRAND RAPIDS   MOSUNNY   27  12  53 W12       30.42F WCI  17
KALAMAZOO      SUNNY     29  13  51 W9        30.42F WCI  20
STURGIS*       SUNNY     28  16  59 CALM      30.41F
THREE RIVERS*  FAIR      30  14  52 NW3       30.42F

$$
OHZ001>008-015>018-024>025-022300-
NORTHWEST OHIO

CITY           SKY/WX    TMP DP  RH WIND       PRES   REMARKS
WAUSEON*       FAIR      27  14  59 W6        30.43F WCI  20
DEFIANCE       MOSUNNY   29  14  53 SW5       30.44F WCI  24
FINDLAY        SUNNY     24  15  68 W6        30.43F WCI  17
TOLEDO EXPRESS SUNNY     26  14  60 W10       30.44F WCI  16
TOLEDO METCALF SUNNY     27  15  61 SW10      30.45F WCI  17
LIMA           SUNNY     27  13  55 NW3       30.43F

$$
AND FOR LAKE MICHIGAN COASTAL AND OPEN LAKE BUOY OBSERVATIONS

STATION/POSITION TEMP    WIND        PRES    VSBY  WAVE
                 AIR SEA DIR/SP/G                  HT/PER
                 (F)     (DEG/KT/KT) (MB)    (MI)  (FT/S)
CALUMET HARBOR    26      70/  7/  9 1029.1F
MICHIGAN CITY     24      30/  5/  5   N/A
SAINT JOSEPH      29     260/  1/  2 1031.5S

$$
&&


USA.gov is the U.S. government's official web portal to all federal, state and local government web resources and services.